Location: Goettingen
(51.5300°N, 9.9433°E)
Time: 05:48:50
(UTC+01:00)

ISS - Pass Details

Date: 07 December 2019
Orbit: 411 x 421 km, 51.6° (Epoch: 15 December)

Event Time Altitude Azimuth Distance (km) Brightness Sun altitude
Rises 19:12:12 0° 281° (W) 2,362 1.3 -26.8°
Reaches altitude 10° 19:14:51 10° 258° (WSW) 1,497 0.0 -27.2°
Enters shadow 19:16:40 16° 226° (SW) 1,194 -1.0 -27.5°
